DELTA 1 DEB, 18600

Orbit data source: Space-Track

DELTA 1 DEB, 18600 is space debris in LEO originally from a launch on Thu, 29 Jul 1976 UTC launched from the Air Force Western Test Range (AFWTR). Debris objects in space refer to the collection of defunct objects orbiting the Earth. Examples of debris include non-operational satellites, rocket bodies, and fragments generated from explosions, collisions, or faulty payload assembly.

Loading next visibility...
Identifier
18600, 1976-077FF
Orbit
LEO
Country
Flag of USUS
Related business
Manufacturer
Unknown
Mission
Spacecraft
Bus & Motor
Unknown
Mass
Unknown
Launch date (UTC)
1976-07-29 (50 years ago)
Launch vehicle
Unknown
Launch site
Air Force Western Test Range (AFWTR)
Object type
Payload
Rocket body
Debris
Shape & HBR
Unknown shape, 1.1 m
Radar Cross Section
Medium (>0.1 m² and <1 m²)

Expand to show TLE details & history
Last TLE update: 4 days ago

TLE from 4 days ago
0 DELTA 1 DEB
1 18600U 76077FF  26030.78251067  .00000297  00000-0  78511-2 0  9991
2 18600 102.0441 147.5519 0787412 247.9915 282.8774 10.91731750453203
Epoch: 2026-01-30T18:46Z
TLE epoch observation values (Epoch: 2026-01-30T18:46:48.921Z)
Latitude
17.66928°
Longitude
-80.28854°
Altitude
2,108.139 km
Speed
6.895 km/s
True Right ascension
22h 05m 43s
True Declination
17° 35' 09"
Sunlit
Object was in daylight at epoch
Visualization orbit readout
Latitude
Unknown
Longitude
Unknown
Altitude
Unknown
Speed
Unknown
Apparent Right ascension
Unknown
Apparent Declination
Unknown
Sunlit
N/A
Visualization observer readout
Local Sidereal Time
16:32:16
Azimuth
Unknown
Elevation
Unknown
Doppler factor
Unknown
Orbital elements
Apogee altitude
2,878.676 km
Perigee altitude
1,527.3 km
Semi-major axis
8,581.125 km
Eccentricity
0.07874
Inclination
102.0441°
RAAN
147.5519°
Arg. of periapsis
247.9915°
True anomaly
273.92088°
Mean anomaly
282.8774°
Eccentric anomaly
278.41443°
Mean motion
2.7304 °/min
Orbital period
131.85 mins
BSTAR
0.0078511
Loading maneuver chart data...
Computing Atmospheric mass density...
Loading historical data...
Loading historical data...
Loading historical data...
Loading historical data...
Loading historical data...
Loading historical data...
Loading historical data...

Documentation

Showing up to 5 results
|